COSMOS 1797

Satellite information

Favourite Embed

Satellite Type and Status

PAYLOADIN ORBIT

Key statistics

Satellite COSMOS 1797 at a glance.

Uptime

14222

Days in orbit

Revolutions

≈ 12.5

Per day

Orbit

LEO

Low Earth Orbit

Inclination

74.0

Latest

Satellite identification and parameters

Extended collection of information and parameters for COSMOS 1797.

Object identification

Identified? True

Debris? False

Object name: COSMOS 1797

International designator: 1986-092D

Object number (NORAD): 17141

Object ID (CCSDS): 17141

Country: COMMONWEALTH OF INDEPENDENT STATES (CIS)

Current information (Y/N): Y

RCS size: MEDIUM

Orbital parameters

Period: 115.049 minutes

Inclination: 74.0148 deg

SMA: 7835.782 km

Apoapsis: 1472.587 km

Periapsis: 1442.707 km

RAAN: 206.9931 deg

Eccentricy: 0.00190662

Argument of periapsis: 307.6503 deg

Mean anomaly: 227.5478 deg

Mean motion: 12.51639492 rev/day

Mean motion (dot): -0.00000001 rev/day2

B* drag term: 0.000097288209 1/REarth

Two-line elements (TLE)

Creation date: Oct. 28, 2025, 7:11 p.m.

Reference frame: TEME

Reference center: EARTH

Epoch: Oct. 28, 2025, 11:45 a.m. UTC

TLE line 0: 0 COSMOS 1797

TLE line 1: 1 17141U 86092D 25301.48967463 -.00000001 00000-0 97288-4 0 9997

TLE line 2: 2 17141 74.0148 206.9931 0019066 307.6503 227.5478 12.51639492779028

Live tracking on map

Real-time ground track for satellite COSMOS 1797.

In-orbit conjunctions

A list of the most updated potential collisions computed for object COSMOS 1797.

Target Orbit TCA Probability of collision Miss distance Type
COSMOS 2499 DEB LEO 2025-06-18 03:54:42 0.0005473243 251.0 (m) DEBRIS

Associated space launch

Military communications satellites

COSMOS 1797 was lifted into orbit during the mission ‘Kosmos-3M | Strela-1M 313-320’, on board a Kosmos-3M space rocket.

The launch took place on Nov. 21, 1986, 2 a.m. from 132/2.

For more information about the launch, click the button.

Launch to space Kosmos-3M | Strela-1M 313-320
Kosmos-3M | Strela-1M 313-320

Agency: N/A

Status: Launch Successful

Launch date: Nov. 21, 1986, 2 a.m. UTC

Rocket: Kosmos-3M

Launch pad: 132/2

Location: Plesetsk Cosmodrome, Russian Federation

...

Latest news about this satellite

There are no fresh news available about this satellite. Check back as we update our databases every day.


Newsletter sign-up

Weekly statistics, charts and insights to help you stay on top of the space industry.